MET7781 - Hamburg to Keflavik

Airbus A321-232
665MT - Sharklet Equipped
3 hrs 00 mins
1171 nm
Ferry - M

Departure

Departing from
Hamburg (XFW)
Departure gate
Delivery Centre
Scheduled Departure
GMT 0600
Local 0800
METAR
TAF
  • No charts available

Arrival

Arriving at
Keflavik (KEF)
Arrival gate
Ramp
Scheduled Arrival
GMT 0900
Local 0900
METAR BIKF 260000Z 22012KT 9999 BR FEW007 OVC046 06/05 Q1022
TAF TAF BIKF 252253Z 2600/2624 21013KT 9000 BR BKN010 OVC030 TX09/2615Z TN05/2606Z TEMPO 2600/2610 3000 DZ BR BKN006 OVC009

Route Map

Planning Resources

LBE UP992 VES U613 VALDI ING KEILA2
DCT LBV UP992 ATTUS P992 BAVTA P613 VALDI/M076F380 G3 NASBU DCT
Route:
OFP Layout:
Units:
Detailed Navlog:
ETOPS Planning:
Plan Stepclimbs:
Runway Analysis:
Include NOTAMS:
FIR NOTAMS:
Flight Maps:

Popularity

Hub Current Bids PiReps this month Total PiReps
KMCI 0 0 1
KLAX 0 0 0
KBOS 0 0 1